sat.trackr.live / text

‹ back to catalog

STARLINK-5686

NORAD 55450 · 2023-015B

PAYLOAD ACTIVE UNKNOWN

§ Identity

Operator
Country
US
Launch date
2023-02-02
Launch site
AFETR
Launch vehicle
Mass (kg)
RCS (m²)

Purposes: comms

External: N2YO · Heavens-Above · Gunter

§ Orbital elements

Epoch: 2026-09-20T13:42:56.626272Z

Period
94.27 min
Inclination
43.0040°
Eccentricity
0.0001177
Mean motion
15.27579021 rev/d
Perigee alt
482.2 km
Apogee alt
483.9 km
Semi-major
6,861.2 km
B*
-2.1507e-6
RAAN
308.4011°
Arg perigee
297.0281°
Mean anomaly
63.0450°
Rev number
20,146

§ Raw data

STARLINK-56861 55450U 23015B   26263.57148873 -.00000321  00000+0 -21507-5 0  99992 55450  43.0040 308.4011 0001177 297.0281  63.0450 15.27579021201464

JSON: /api/v1/satellites/55450 · /tle

For live sub-satellite position, see the globe view (requires WebGL).

§ Visibility from observer

Set your observer location to see the next 7 days of passes ≥ 10°. The values pass through the URL so the page stays shareable.

No JS? Fill the form by hand. The geolocation button needs JavaScript.